Regional Weather Roundup
Issued by NWS

Home | Current Version | Previous Version | Text Only | Print | Product List | Glossary Off
Versions: 1 2 3 4 5 6 7 8 9 10 11 12 13 14 15 16 17 18 19 20 21 22 23 24 25 26 27 28 29 30 31 32 33 34 35 36 37 38 39 40 41 42 43 44 45 46 47 48 49 50

000
ASUS43 KLOT 041703
RWRIL

ILLINOIS REGIONAL WEATHER ROUNDUP
NATIONAL WEATHER SERVICE CHICAGO/ROMEOVILLE IL
1100 AM CST SUN DEC 04 2016

NOTE: "FAIR" INDICATES FEW OR NO CLOUDS BELOW 12,000 FEET WITH NO
SIGNIFICANT WEATHER AND/OR OBSTRUCTIONS TO VISIBILITY.

* THESE STATIONS ARE NOT UNDER NWS QUALITY CONTROL. THEY ALSO MAY NOT
  REPORT WEATHER SUCH AS PRECIPITATION OR FOG.

ILZ001-002-007-009-015-016-024-041800-
NORTHWEST ILLINOIS

CITY           SKY/WX    TMP DP  RH WIND       PRES   REMARKS
MOLINE         SNOW      32  30  92 SE10      30.01F VSB 1/2 WCI  24
STERLING*      HVY SNOW  31  30  96 E7        30.04F VSB 1/4 WCI  24
$$

ILZ003-004-008-010-011-017-018-041800-
NORTH CENTRAL ILLINOIS

CITY           SKY/WX    TMP DP  RH WIND       PRES   REMARKS
ROCKFORD       SNOW      31  29  92 SE6       30.06F VSB 1/4 WCI  25
FREEPORT*      SNOW      30  29  96 SE8       30.04F VSB 1/2 WCI  22
ROCHELLE*      SNOW      30  29  96 SE8       30.05F VSB 1/4 WCI  23
$$

ILZ005-006-012>014-019>023-041800-
NORTHEAST ILLINOIS

CITY           SKY/WX    TMP DP  RH WIND       PRES   REMARKS
CHICAGO-OHARE  SNOW      32  30  92 S5        30.06F VSB 1/2 WCI  27
CHICAGO-MIDWAY LGT SNOW  34  27  75 SE6       30.06F WCI  29
AURORA         SNOW      32  30  92 E8        30.05F VSB 1/2 WCI  25
LANSING*       LGT SNOW  33  30  89 E6        30.06F WCI  28
WAUKEGAN       SNOW      33  31  92 CALM      30.05F VSB 1/2
DUPAGE AIRPORT SNOW      31  28  89 E5        30.05F VSB 1/2 WCI  26
KANKAKEE*      LGT SNOW  33  30  88 E6        30.05F WCI  28
WHEELING       SNOW      31  29  92 CALM      30.07F VSB 1/2
MORRIS*        SNOW      32  31  94 E5        30.04F VSB 1/2 WCI  27
NORTHERLY ISL    N/A     35  29  79 SE9         N/A  WCI  28
$$

LMZ740>746-041800-
SOUTHERN LAKE MICHIGAN

STATION/POSITION SKY/WX   TEMP    WIND        PRES    VSBY  WAVE
                          AIR SEA DIR/SP/G                  HT/PER
                          (F)     (DEG/KT/KT) (MB)    (MI)  (FT/S)
SOUTHERN BUOY              38 48  140/ 14/ 16 1018.4F         1/ 3
HARRISON CRIB              36     130/ 10/ 12   N/A
BURNHAM HARBOR             35     160/  9/ 10   N/A
CALUMET HARBOR             35     120/  9/ 11 1017.7F
BURNS HARBOR               34     100/  8/ 11 1018.3F
$$

ILZ025>027-034>036-040-047-049-050-058-095>099-041800-
WEST-CENTRAL ILLINOIS

CITY           SKY/WX    TMP DP  RH WIND       PRES   REMARKS
QUINCY         SNOW      32  32 100 E8        29.99F VSB 1/2 WCI  25
GALESBURG*     SNOW      32  32 100 CALM      30.02F VSB 1/2
MACOMB*        SNOW      32  32 100 CALM      30.04F VSB 1/4
JACKSONVILLE*  LGT SNOW  32  32 100 NE5       30.01F VSB 3/4 WCI  27
PITTSFIELD*    SNOW      33  33  99 CALM      30.03S VSB 1/2
$$

ILZ028>032-037-038-041>044-048-051>054-059>061-041800-
CENTRAL ILLINOIS

CITY           SKY/WX    TMP DP  RH WIND       PRES   REMARKS
BLOOMINGTON    SNOW      32  31  96 E7        30.01F VSB 1/2 WCI  26
DECATUR        RAIN     N/A N/A N/A E9        29.99F
PEORIA         SNOW      32  32 100 NE5       30.03F VSB 1/2 WCI  27
LACON*         SNOW      32  31  98 E3        30.03F VSB 1/2
LINCOLN*       MIX PCPN  33  33 100 NE6       30.01F VSB 3/4 WCI  28
SPRINGFIELD    SNOW      34  32  92 CALM      30.01F VSB 1/2
TAYLORVILLE    MIX PCPN  34  33  96 E5        30.00F WCI  30
$$

ILZ033-039-045-046-055>057-062-063-041800-
EAST-CENTRAL ILLINOIS

CITY           SKY/WX    TMP DP  RH WIND       PRES   REMARKS
CHAMPAIGN      LGT RAIN  35  32  88 NE7       30.02F FOG     WCI  29
RANTOUL*       LGT SNOW  35  33  95 NE5       30.02F WCI  31
MATTOON        LGT RAIN  37  34  89 SE8       29.98F FOG     WCI  31
PARIS*         RAIN      37  35  92 E6        30.00F WCI  32
$$

ILZ079-100>102-041800-
SOUTHWEST ILLINOIS

CITY           SKY/WX    TMP DP  RH WIND       PRES   REMARKS
ALTON          LGT RAIN  37  36  93 E6        30.00F WCI  33
BELLEVILLE     LGT RAIN  39  39 100 S5        29.98F FOG
CAHOKIA*       LGT RAIN  39  36  89 S5        30.00F FOG
SPARTA*        DRIZZLE   38  37  97 CALM      30.00F
$$

ILZ064>066-069>071-074>076-080>082-084>086-088>090-092>094-041800-
SOUTH-CENTRAL ILLINOIS

CITY           SKY/WX    TMP DP  RH WIND       PRES   REMARKS
CARBONDALE     LGT RAIN  41  41 100 S7        30.00F FOG
CAIRO*         DRIZZLE   42  42  99 S3        30.02S
EFFINGHAM*     RAIN      38  38 100 E6        30.00F WCI  34
MARION         DRZL/FOG  41  41 100 S5        30.01F VSB 1
CENTRALIA*     LGT RAIN  39  39  99 S5        29.98F
SALEM*         RAIN      39  37  93 SE5       29.99F
METROPOLIS*    DRIZZLE   42  42  97 CALM      30.01F
$$

ILZ067-068-072-073-078-083-087-091-041800-
SOUTHEAST ILLINOIS

CITY           SKY/WX    TMP DP  RH WIND       PRES   REMARKS
LAWRENCEVILLE  CLOUDY    41  37  86 SE8       30.00F FOG
FLORA*         LGT RAIN  40  39  95 SE8       29.99F
FAIRFIELD*     DRIZZLE   39  39  99 SE3       29.98F
HARRISBURG*    DRIZZLE   40  40  99 SE3       30.00F
ROBINSON*      CLOUDY    39  36  90 SE8       30.01F FOG     WCI  33
CARMI*         LGT RAIN  41  40  97 SE8       30.00F
$$

ABBREVIATIONS USED IN REMARKS
   TC - TEMPERATURE IN CELSIUS
  WCI - WIND CHILL INDEX
   HX - HEAT INDEX
  VSB - VISIBILITY
$$





USA.gov is the U.S. government's official web portal to all federal, state and local government web resources and services.